Regional Weather Roundup
Issued by NWS Kansas City/Pleasant Hill, MO

Home | Current Version | Previous Version | Graphics & Text | Print | Product List | Glossary Off
Versions: 1 2 3 4 5 6 7 8 9 10 11 12 13 14 15 16 17 18 19 20 21 22 23 24 25 26 27 28 29 30 31 32 33 34 35 36 37 38 39 40 41 42 43 44 45 46 47 48 49 50

423
ASUS43 KEAX 120010
RWREAX

WEATHER ROUNDUP FOR EASTERN KANSAS AND NORTHWEST MISSOURI
NATIONAL WEATHER SERVICE KANSAS CITY/PLEASANT HILL MO
600 PM CST THU FEB 11 2016

KSZ040-057-103>105-MOZ028-029-037-043-120100-
...KANSAS CITY METROPOLITAN AREA...

CITY           SKY/WX    TMP DP  RH WIND       PRES   REMARKS
K.C. INTL      CLOUDY    34  21  59 SE7       30.19S WCI  28
6HR MIN TEMP:  30; 6HR MAX TEMP:  36;

K.C. DOWNTOWN  MOCLDY    36  20  52 SE7       30.19F WCI  30
6HR MIN TEMP:  33; 6HR MAX TEMP:  38;

LEES SUMMIT    CLOUDY    34  20  56 E5        30.20S WCI  30
6HR MIN TEMP:  32; 6HR MAX TEMP:  36;

OLATHE - IXD   CLOUDY    35  22  58 SE6       30.20R WCI  30
6HR MIN TEMP:  33; 6HR MAX TEMP:  39;

OLATHE - OJC   CLOUDY    34  21  59 SE6       30.20R WCI  29
6HR MIN TEMP:  33; 6HR MAX TEMP:  38;

LAWRENCE       PTCLDY    36  23  59 SE6       30.19F WCI  31

$$

MOZ001>008-011>017-020>025-030>033-038>040-044>046-053-054-120100-
...NORTHERN AND CENTRAL MISSOURI...

CITY           SKY/WX    TMP DP  RH WIND       PRES   REMARKS
ST. JOSEPH     CLOUDY    34  20  56 SE7       30.19F WCI  28
6HR MIN TEMP:  29; 6HR MAX TEMP:  35;

MOSBY          CLOUDY    34  21  60 SE3       30.21F
WARRENSBURG    CLOUDY    34  21  60 NE3       30.22R
WHITEMAN AFB   MOCLDY    34  19  54 E3        30.20S
6HR MIN TEMP:  34; 6HR MAX TEMP:  38;

CLINTON          N/A     37  25  60 CALM      30.21F
SEDALIA        CLOUDY    35  19  52 E7        30.21F WCI  29
6HR MIN TEMP:  33; 6HR MAX TEMP:  38;

WARSAW         NOT AVBL
CHILLICOTHE      N/A     29  16  58 VRB5      30.24F WCI  24
6HR MIN TEMP:  27; 6HR MAX TEMP:  31;

KIRKSVILLE     CLOUDY    23  10  57 E6        30.27S WCI  16
6HR MIN TEMP:  20; 6HR MAX TEMP:  24;


$$

MOZ041-047>049-056>058-063>065-088>090-097-120100-
...EASTERN AND SOUTHERN MISSOURI...

CITY           SKY/WX    TMP DP  RH WIND       PRES   REMARKS
ST. LOUIS INTL CLOUDY    29   7  39 E9        30.30S WCI  20
6HR MIN TEMP:  26; 6HR MAX TEMP:  32;

SPIRIT OF STL  CLOUDY    29  13  51 NE8       30.28F WCI  21
COLUMBIA       CLOUDY    31  20  63 E8        30.22F WCI  23
JEFFERSON CITY CLOUDY    34  18  52 NE7       30.26R WCI  28
ROLLA          CLOUDY    33  21  61 E7        30.17F WCI  27
OSAGE BEACH    MOCLDY    37  19  48 E6        30.21R WCI  33
SPRINGFIELD    PTCLDY    44  19  36 NE6       30.15R
BRANSON        CLOUDY    43  19  39 SE13      30.15F
JOPLIN         PTCLDY    43  23  45 NE5       30.17R
WEST PLAINS    CLOUDY    43  18  36 SE5       30.20F

$$

IAZ060-094-KSZ022-034>040-054-083-096-NEZ052-066-093-120100-
...KANSAS...SOUTHEAST NEBRASKA AND IOWA...

CITY           SKY/WX    TMP DP  RH WIND       PRES   REMARKS
TOPEKA         CLEAR     38  22  52 SE7       30.17F WCI  33
6HR MIN TEMP:  35; 6HR MAX TEMP:  40;

MANHATTAN      PTCLDY    37  24  59 SW6       30.15R WCI  32
EMPORIA        PTCLDY    38  22  52 SE6       30.15F WCI  33
CHANUTE        PTCLDY    41  24  51 E5        30.19R
WICHITA        PTCLDY    44  26  49 CALM      30.14S
OMAHA          CLOUDY    27  20  75 E6        30.18F WCI  20
LINCOLN        CLOUDY    29  23  78 SW5       30.18S WCI  24
FALLS CITY     MOCLDY    33  22  63 SE5       30.18R WCI  29
LAMONI         CLOUDY    26  11  52 E5        30.22R WCI  20
DES MOINES     LGT SNOW  19  11  70 E5        30.26R WCI  12

$$





USA.gov is the U.S. government's official web portal to all federal, state and local government web resources and services.